Time,TemperatureF,DewpointF,PressureIn,WindDirection,WindDirectionDegrees,WindSpeedMPH,WindSpeedGustMPH,Humidity,HourlyPrecipIn,Conditions,Clouds,dailyrainin,SolarRadiationWatts/m^2,SoftwareType,DateUTC
2013-02-22 01:00:00,19.0,16.0,-100.00,ENE,67,7.0,-999.0,89,-99.99,,,-99.99,0.000000,,2013-02-22 06:00:00,
2013-02-22 01:32:00,19.0,16.0,-100.00,ENE,67,7.0,-999.0,89,-99.99,,,-99.99,0.000000,,2013-02-22 06:32:00,
2013-02-22 01:42:00,19.0,16.0,-100.00,ENE,67,7.0,-999.0,89,-99.99,,,-99.99,0.000000,,2013-02-22 06:42:00,
2013-02-22 01:52:00,19.0,16.0,-100.00,ENE,67,7.0,-999.0,89,-99.99,,,-99.99,0.000000,,2013-02-22 06:52:00,
2013-02-22 02:00:00,18.0,15.0,-100.00,ENE,67,7.0,-999.0,89,-99.99,,,-99.99,0.000000,,2013-02-22 07:00:00,
2013-02-22 02:42:00,18.0,15.0,-100.00,ENE,67,7.0,-999.0,89,-99.99,,,-99.99,0.000000,,2013-02-22 07:42:00,
2013-02-22 02:52:00,18.0,15.0,-100.00,ENE,67,7.0,-999.0,89,-99.99,,,-99.99,0.000000,,2013-02-22 07:52:00,
2013-02-22 03:00:00,18.0,16.0,-100.00,ENE,67,7.0,-999.0,89,-99.99,,,-99.99,0.000000,,2013-02-22 08:00:00,
2013-02-22 03:42:00,18.0,16.0,-100.00,ENE,67,7.0,-999.0,89,-99.99,,,-99.99,0.000000,,2013-02-22 08:42:00,
2013-02-22 03:52:00,18.0,16.0,-100.00,ENE,67,7.0,-999.0,89,-99.99,,,-99.99,0.000000,,2013-02-22 08:52:00,
2013-02-22 05:00:00,19.0,17.0,-100.00,ENE,67,8.0,-999.0,90,-99.99,,,-99.99,0.000000,,2013-02-22 10:00:00,
2013-02-22 05:42:00,19.0,17.0,-100.00,ENE,67,8.0,-999.0,90,-99.99,,,-99.99,0.000000,,2013-02-22 10:42:00,
2013-02-22 05:52:00,19.0,17.0,-100.00,ENE,67,8.0,-999.0,90,-99.99,,,-99.99,0.000000,,2013-02-22 10:52:00,
2013-02-22 06:00:00,20.0,18.0,-100.00,ENE,67,8.0,-999.0,90,-99.99,,,-99.99,0.000000,,2013-02-22 11:00:00,
2013-02-22 06:42:00,20.0,18.0,-100.00,ENE,67,8.0,-999.0,90,-99.99,,,-99.99,0.000000,,2013-02-22 11:42:00,
2013-02-22 06:52:00,20.0,18.0,-100.00,ENE,67,8.0,-999.0,90,-99.99,,,-99.99,0.000000,,2013-02-22 11:52:00,
2013-02-22 07:00:00,21.0,19.0,-100.00,ENE,67,8.0,-999.0,91,-99.99,,,-99.99,0.000000,,2013-02-22 12:00:00,
2013-02-22 07:42:00,21.0,19.0,-100.00,ENE,67,8.0,-999.0,91,-99.99,,,-99.99,0.000000,,2013-02-22 12:42:00,
2013-02-22 07:52:00,21.0,19.0,-100.00,ENE,67,8.0,-999.0,91,-99.99,,,-99.99,0.000000,,2013-02-22 12:52:00,
2013-02-22 08:00:00,21.0,19.0,-100.00,ENE,67,9.0,-999.0,92,-99.99,,,-99.99,1.160000,,2013-02-22 13:00:00,
2013-02-22 08:42:00,21.0,19.0,-100.00,ENE,67,9.0,-999.0,92,-99.99,,,-99.99,1.160000,,2013-02-22 13:42:00,
2013-02-22 08:52:00,21.0,19.0,-100.00,ENE,67,9.0,-999.0,92,-99.99,,,-99.99,1.160000,,2013-02-22 13:52:00,
2013-02-22 10:00:00,21.0,20.0,-100.00,ENE,67,11.0,-999.0,93,-99.99,,,-99.99,41.759998,,2013-02-22 15:00:00,
2013-02-22 10:42:00,21.0,20.0,-100.00,ENE,67,11.0,-999.0,93,-99.99,,,-99.99,41.759998,,2013-02-22 15:42:00,
2013-02-22 10:52:00,21.0,20.0,-100.00,ENE,67,11.0,-999.0,93,-99.99,,,-99.99,41.759998,,2013-02-22 15:52:00,
2013-02-22 11:00:00,22.0,21.0,-100.00,ENE,67,9.0,-999.0,94,-99.99,,,-99.99,92.800003,,2013-02-22 16:00:00,
2013-02-22 11:42:00,22.0,21.0,-100.00,ENE,67,9.0,-999.0,94,-99.99,,,-99.99,92.800003,,2013-02-22 16:42:00,
2013-02-22 11:52:00,22.0,21.0,-100.00,ENE,67,9.0,-999.0,94,-99.99,,,-99.99,92.800003,,2013-02-22 16:52:00,
2013-02-22 12:00:00,22.0,21.0,-100.00,ENE,67,9.0,-999.0,94,-99.99,,,-99.99,141.520004,,2013-02-22 17:00:00,
2013-02-22 12:42:00,22.0,21.0,-100.00,ENE,67,9.0,-999.0,94,-99.99,,,-99.99,141.520004,,2013-02-22 17:42:00,
2013-02-22 12:52:00,22.0,21.0,-100.00,ENE,67,9.0,-999.0,94,-99.99,,,-99.99,141.520004,,2013-02-22 17:52:00,
2013-02-22 13:00:00,22.0,20.0,-100.00,ENE,67,11.0,-999.0,92,-99.99,,,-99.99,163.559998,,2013-02-22 18:00:00,
2013-02-22 13:42:00,22.0,20.0,-100.00,ENE,67,11.0,-999.0,92,-99.99,,,-99.99,163.559998,,2013-02-22 18:42:00,
2013-02-22 13:52:00,22.0,20.0,-100.00,ENE,67,11.0,-999.0,92,-99.99,,,-99.99,163.559998,,2013-02-22 18:52:00,
2013-02-22 14:00:00,22.0,20.0,-100.00,ENE,67,11.0,-999.0,91,-99.99,,,-99.99,116.000000,,2013-02-22 19:00:00,
2013-02-22 14:42:00,22.0,20.0,-100.00,ENE,67,11.0,-999.0,91,-99.99,,,-99.99,116.000000,,2013-02-22 19:42:00,
2013-02-22 14:52:00,22.0,20.0,-100.00,ENE,67,11.0,-999.0,91,-99.99,,,-99.99,116.000000,,2013-02-22 19:52:00,
2013-02-22 15:00:00,22.0,20.0,-100.00,ENE,67,10.0,-999.0,91,-99.99,,,-99.99,55.680000,,2013-02-22 20:00:00,
2013-02-22 15:42:00,22.0,20.0,-100.00,ENE,67,10.0,-999.0,91,-99.99,,,-99.99,55.680000,,2013-02-22 20:42:00,
2013-02-22 15:52:00,22.0,20.0,-100.00,ENE,67,10.0,-999.0,91,-99.99,,,-99.99,55.680000,,2013-02-22 20:52:00,
2013-02-22 16:00:00,22.0,21.0,-100.00,ENE,67,10.0,-999.0,93,-99.99,,,-99.99,84.680000,,2013-02-22 21:00:00,
2013-02-22 16:42:00,22.0,21.0,-100.00,ENE,67,10.0,-999.0,93,-99.99,,,-99.99,84.680000,,2013-02-22 21:42:00,
2013-02-22 16:52:00,22.0,21.0,-100.00,ENE,67,10.0,-999.0,93,-99.99,,,-99.99,84.680000,,2013-02-22 21:52:00,
2013-02-22 17:00:00,22.0,21.0,-100.00,ENE,67,11.0,-999.0,93,-99.99,,,-99.99,60.320000,,2013-02-22 22:00:00,
2013-02-22 17:42:00,22.0,21.0,-100.00,ENE,67,11.0,-999.0,93,-99.99,,,-99.99,60.320000,,2013-02-22 22:42:00,
2013-02-22 17:52:00,22.0,21.0,-100.00,ENE,67,11.0,-999.0,93,-99.99,,,-99.99,60.320000,,2013-02-22 22:52:00,
2013-02-22 18:00:00,23.0,21.0,-100.00,East,90,9.0,-999.0,93,-99.99,,,-99.99,20.879999,,2013-02-22 23:00:00,
2013-02-22 18:42:00,23.0,21.0,-100.00,East,90,9.0,-999.0,93,-99.99,,,-99.99,20.879999,,2013-02-22 23:42:00,
2013-02-22 18:52:00,23.0,21.0,-100.00,East,90,9.0,-999.0,93,-99.99,,,-99.99,20.879999,,2013-02-22 23:52:00,
2013-02-22 19:00:00,23.0,21.0,-100.00,ENE,67,7.0,-999.0,93,-99.99,,,-99.99,1.160000,,2013-02-23 00:00:00,
2013-02-22 19:42:00,23.0,21.0,-100.00,ENE,67,7.0,-999.0,93,-99.99,,,-99.99,1.160000,,2013-02-23 00:42:00,
2013-02-22 19:52:00,23.0,21.0,-100.00,ENE,67,7.0,-999.0,93,-99.99,,,-99.99,1.160000,,2013-02-23 00:52:00,
2013-02-22 20:00:00,22.0,21.0,-100.00,ENE,67,5.0,-999.0,94,-99.99,,,-99.99,0.000000,,2013-02-23 01:00:00,
2013-02-22 20:42:00,22.0,21.0,-100.00,ENE,67,5.0,-999.0,94,-99.99,,,-99.99,0.000000,,2013-02-23 01:42:00,
2013-02-22 20:52:00,22.0,21.0,-100.00,ENE,67,5.0,-999.0,94,-99.99,,,-99.99,0.000000,,2013-02-23 01:52:00,
2013-02-22 23:00:00,21.0,20.0,-100.00,NE,45,2.0,-999.0,94,-99.99,,,-99.99,0.000000,,2013-02-23 04:00:00,
2013-02-22 23:42:00,21.0,20.0,-100.00,NE,45,2.0,-999.0,94,-99.99,,,-99.99,0.000000,,2013-02-23 04:42:00,
2013-02-22 23:52:00,21.0,20.0,-100.00,NE,45,2.0,-999.0,94,-99.99,,,-99.99,0.000000,,2013-02-23 04:52:00,